Location: Colorado Springs
(38.8340°N, 104.8210°W)
Time: 01:56:22
(UTC-06:00)

Tiangong 2 - Pass Details

Date: 10 October 2017
Orbit: 388 x 391 km, 42.8° (Epoch: 22 October)

Event Time Altitude Azimuth Distance (km) Brightness Sun altitude
Exits shadow 05:05:59 34° 101° (E) 659 2.7 -23.7°
Drops below altitude 10° 05:08:07 10° 77° (ENE) 1,421 5.0 -23.3°
Sets 05:10:14 0° 72° (ENE) 2,279 6.4 -22.9°
